Regional Weather Roundup
Issued by NWS

Home | Current Version | Previous Version | Graphics & Text | Print | Product List | Glossary On
Versions: 1 2 3 4 5 6 7 8 9 10 11 12 13 14 15 16 17 18 19 20 21 22 23 24 25 26 27 28 29 30 31 32 33 34 35 36 37 38 39 40 41 42 43 44 45 46 47 48 49 50
000
ASUS45 KTFX 061510
RWRMT
MONTANA REGIONAL WEATHER ROUNDUP
NATIONAL WEATHER SERVICE GREAT FALLS MT
900 AM MDT MON JUL 06 2015

NOTE: "FAIR" INDICATES FEW OR NO CLOUDS BELOW 12000 FEET WITH NO
SIGNIFICANT WEATHER AND/OR OBSTRUCTIONS TO VISIBILITY.

MTZ001>007-043-061600-
WEST OF THE DIVIDE

CITY           SKY/WX    TMP DP  RH WIND       PRES   REMARKS
KALISPELL      SUNNY     59  43  55 NE14      30.20S
MISSOULA       SUNNY     61  43  51 NW5       30.20S
BUTTE          CLOUDY    57  46  66 VRB3      30.27S
MULLAN PASS    SUNNY     50  42  74 SE6       30.23S
DEER LODGE       N/A     57  45  62 CALM      30.27F
EUREKA           N/A     59  41  51 SE3       30.21S
HAMILTON         N/A     61  46  59 E1        30.18F
LIBBY            N/A     55  43  62 CALM      30.20S
PLAINS           N/A     59  45  59 CALM      30.17F
RONAN            N/A     63  50  62 N1        30.22S
THOMPSON FALLS   N/A     60  44  55 E10       30.19F
$$

MTZ008-052>055-061600-
SOUTHWEST MONTANA

CITY           SKY/WX    TMP DP  RH WIND       PRES   REMARKS
BOZEMAN        CLOUDY    55  49  80 CALM      30.27R
DILLON         CLOUDY    54  47  77 CALM      30.26S
W YELLOWSTONE  CLOUDY    50  48  93 N5        30.33S
THREE FORKS      N/A     57  57 100 CALM      30.24R
$$

MTZ009-010-012-014-046-048-049-054-061600-
EAST SLOPES AND CENTRAL MONTANA

CITY           SKY/WX    TMP DP  RH WIND       PRES   REMARKS
CUT BANK       SUNNY     51  44  77 S3        30.24S
GREAT FALLS    SUNNY     54  48  80 E6        30.25S
MALMSTROM AFB  MOSUNNY   54  49  84 SE5       30.26S
HELENA         CLOUDY    55  46  71 CALM      30.25F
CONRAD           N/A     56  53  89 CALM      30.24F
$$

MTZ011-013-016-021-045-047-050-051-061600-
NORTH CENTRAL MONTANA

CITY           SKY/WX    TMP DP  RH WIND       PRES   REMARKS
HAVRE          SUNNY     58  52  80 MISG      30.24F
LEWISTOWN      CLOUDY    56  47  71 CALM      30.28S
CHINOOK          N/A     61  50  67 W5        30.24S
FORT BENTON      N/A     59  48  67 CALM      30.26F
$$

MTZ017>020-022>027-061-062-061600-
NORTHEAST MONTANA

CITY           SKY/WX    TMP DP  RH WIND       PRES   REMARKS
GLASGOW        MOSUNNY   62  51  67 NW7       30.22S
JORDAN           N/A     62  52  69 NW9       30.24S
SIDNEY         SUNNY     64  52  63 W8        30.20S
WOLF POINT     SUNNY     64  53  67 N6        30.22R HAZE
MALTA            N/A     61  53  74 CALM      30.19S
PLENTYWOOD       N/A     57  52  82 N9        30.19F
POPLAR           N/A     63  54  72 N5        30.22R
SCOBEY           N/A     59  46  61 N5        30.19S
$$

MTZ028>42-056>058-061600-
SOUTHCENTRAL AND SOUTHEAST MONTANA

CITY           SKY/WX    TMP DP  RH WIND       PRES   REMARKS
BAKER          SUNNY     64  52  64 N8        30.23R
BILLINGS       CLOUDY    56  49  77 E7        30.29S
LIVINGSTON     CLOUDY    54  49  83 E9        30.28R
MILES CITY     PTSUNNY   61  54  77 NW7       30.24S
EKALAKA          N/A     58  51  77 NW7       30.20S
FORSYTH          N/A     59  55  88 W3        30.25F
LAUREL           N/A     57  46  66 E5        30.25R
ROUNDUP          N/A     57  47  69 NE2       30.17S
$$

REGIONAL REPORTS...DAKOTAS

CITY           SKY/WX    TMP DP  RH WIND       PRES   REMARKS
WILLISTON      PTSUNNY   62  51  67 NE6       30.19S HAZE
MINOT          CLOUDY    59  50  72 N5        30.16R SMOKE
DICKINSON      PTSUNNY   61  50  67 N7        30.17S
BEACH          CLOUDY    63  54  72 NW8       30.22S
CROSBY         PTSUNNY   57  57 100 N7        30.20S FOG
BISMARCK       CLOUDY    65  56  72 NW6       30.15R HAZE
GRAND FORKS    PTSUNNY   59  47  64 N20       30.09R
FARGO          MOSUNNY   62  49  62 N17G30    30.05R
BUFFALO SD       N/A     62  54  74 N12       30.15R
RAPID CITY     CLOUDY    60  53  77 NW14      30.23R
$$

REGIONAL REPORTS...WYOMING/IDAHO/WASHINGTON

CITY           SKY/WX    TMP DP  RH WIND       PRES   REMARKS
GILLETTE       CLOUDY    56  50  80 N7        30.28S
SHERIDAN       LGT RAIN  54  52  93 N7        30.29R FOG
BUFFALO WY     CLOUDY    52  51  97 NE5       30.31R FOG
CODY           CLOUDY    54  48  82 CALM      30.30S
YELLOWSTONE LA   N/A     51  47  86 CALM      30.39R
IDAHO FALLS    CLOUDY    60  55  83 N10       30.19R
SALMON         SUNNY     64  48  55 CALM      30.16F
BOISE          MOSUNNY   76  52  43 SE6       30.06R
SPOKANE        PTSUNNY   67  43  41 NE9       30.08R
$$

REGIONAL REPORTS...ALBERTA

CITY           SKY/WX    TMP DP  RH WIND       PRES   REMARKS
EDMONTON       SUNNY     61  43  51 S6        30.14F
CALGARY        PTSUNNY   55  46  71 S12       30.17F
LETHBRIDGE     MOSUNNY   57  50  77 SE7       30.20F
MEDICINE HAT   MOSUNNY   57  50  77 SE5       30.22F
CARDSTON         N/A     55  50  82 E2          N/A
MILK RIVER       N/A     59  48  67 S3          N/A
ONEFOUR          N/A     59  43  55 NE1         N/A
$$

REGIONAL REPORTS...SASKATCHEWAN

CITY           SKY/WX    TMP DP  RH WIND       PRES   REMARKS
SWIFT CURRENT  SUNNY     57  50  77 W3        30.23S
REGINA         MOSUNNY   61  46  59 E3        30.23R
SASKATOON      PTSUNNY   57  46  67 W3        30.22F
CYPRESS HILLS    N/A     52  46  82 SW1         N/A
VAL MARIE        N/A     61  52  72 NE3         N/A
$$



USA.gov is the U.S. government's official web portal to all federal, state and local government web resources and services.